Time,TemperatureF,DewpointF,PressureIn,WindDirection,WindDirectionDegrees,WindSpeedMPH,WindSpeedGustMPH,Humidity,HourlyPrecipIn,Conditions,Clouds,dailyrainin,SoftwareType,DateUTC
2013-03-10 00:01:00,35.0,33.7,30.50,SSE,149,0.0,0.0,95,0.00,CLR,,0.00,WeatherDisplay:10.37,2013-03-10 08:01:00,
2013-03-10 00:11:00,34.8,33.5,30.49,SSE,149,0.0,0.0,95,0.00,CLR,,0.00,WeatherDisplay:10.37,2013-03-10 08:11:00,
2013-03-10 00:16:00,34.7,33.5,30.49,SSE,149,0.0,0.0,95,0.00,CLR,,0.00,WeatherDisplay:10.37,2013-03-10 08:16:00,
2013-03-10 00:21:00,34.7,33.7,30.49,SSE,149,0.0,0.0,96,0.00,CLR,,0.00,WeatherDisplay:10.37,2013-03-10 08:21:00,
2013-03-10 00:26:00,34.6,33.6,30.50,SSE,150,0.0,0.0,96,0.00,CLR,,0.00,WeatherDisplay:10.37,2013-03-10 08:26:00,
2013-03-10 00:31:00,34.7,33.7,30.50,SSE,149,0.0,0.0,96,0.00,CLR,,0.00,WeatherDisplay:10.37,2013-03-10 08:31:00,
2013-03-10 00:36:00,34.7,33.6,30.50,SSE,149,0.0,0.0,96,0.00,CLR,,0.00,WeatherDisplay:10.37,2013-03-10 08:36:00,
2013-03-10 00:41:00,34.5,33.5,30.50,SSE,149,0.0,0.0,96,0.00,CLR,,0.00,WeatherDisplay:10.37,2013-03-10 08:41:00,
2013-03-10 00:46:00,34.4,33.4,30.50,SSE,149,0.0,0.0,96,0.00,CLR,,0.00,WeatherDisplay:10.37,2013-03-10 08:46:00,
2013-03-10 00:51:00,34.4,33.4,30.50,SSE,149,0.0,0.0,96,0.00,CLR,,0.00,WeatherDisplay:10.37,2013-03-10 08:51:00,
2013-03-10 00:56:00,34.3,33.3,30.50,SSE,149,0.0,0.0,96,0.00,CLR,,0.00,WeatherDisplay:10.37,2013-03-10 08:56:00,
2013-03-10 01:01:00,34.3,33.2,30.50,SSE,149,0.0,0.0,96,0.00,CLR,,0.00,WeatherDisplay:10.37,2013-03-10 09:01:00,
2013-03-10 01:11:00,34.3,33.5,30.50,South,172,0.0,1.0,97,0.00,CLR,,0.00,WeatherDisplay:10.37,2013-03-10 09:11:00,
2013-03-10 01:16:00,34.2,33.2,30.49,WSW,249,0.0,0.0,96,0.00,CLR,,0.00,WeatherDisplay:10.37,2013-03-10 09:16:00,
2013-03-10 01:21:00,34.1,33.1,30.50,WSW,249,0.0,0.0,96,0.00,CLR,,0.00,WeatherDisplay:10.37,2013-03-10 09:21:00,
2013-03-10 01:26:00,34.0,33.0,30.50,WSW,249,0.0,0.0,96,0.00,CLR,,0.00,WeatherDisplay:10.37,2013-03-10 09:26:00,
2013-03-10 01:31:00,33.8,32.8,30.50,WSW,248,0.0,0.0,96,0.00,CLR,,0.00,WeatherDisplay:10.37,2013-03-10 09:31:00,
2013-03-10 01:36:00,33.9,33.1,30.50,WSW,249,0.0,0.0,97,0.00,CLR,,0.00,WeatherDisplay:10.37,2013-03-10 09:36:00,
2013-03-10 01:41:00,34.0,33.2,30.50,WSW,249,0.0,0.0,97,0.00,CLR,,0.00,WeatherDisplay:10.37,2013-03-10 09:41:00,
2013-03-10 01:46:00,33.9,32.9,30.50,WSW,249,0.0,0.0,96,0.00,CLR,,0.00,WeatherDisplay:10.37,2013-03-10 09:46:00,
2013-03-10 01:51:00,33.9,32.8,30.50,WSW,249,0.0,0.0,96,0.00,CLR,,0.00,WeatherDisplay:10.37,2013-03-10 09:51:00,
2013-03-10 01:56:00,33.8,32.8,30.49,WSW,249,0.0,0.0,96,0.00,CLR,,0.00,WeatherDisplay:10.37,2013-03-10 09:56:00,
2013-03-10 03:01:00,33.7,32.7,30.49,WSW,249,0.0,1.0,96,0.00,CLR,,0.00,WeatherDisplay:10.37,2013-03-10 10:01:00,
2013-03-10 03:11:00,33.9,33.1,30.50,WSW,249,0.0,1.0,97,0.00,CLR,,0.00,WeatherDisplay:10.37,2013-03-10 10:11:00,
2013-03-10 03:16:00,34.2,33.4,30.49,WSW,248,0.0,0.0,97,0.00,CLR,,0.00,WeatherDisplay:10.37,2013-03-10 10:16:00,
2013-03-10 03:21:00,34.1,33.3,30.49,WSW,249,0.0,0.0,97,0.00,CLR,,0.00,WeatherDisplay:10.37,2013-03-10 10:21:00,
2013-03-10 03:26:00,34.1,33.3,30.50,WSW,249,0.0,0.0,97,0.00,CLR,,0.00,WeatherDisplay:10.37,2013-03-10 10:26:00,
2013-03-10 03:31:00,34.3,33.5,30.50,WSW,249,0.0,0.0,97,0.00,CLR,,0.00,WeatherDisplay:10.37,2013-03-10 10:31:00,
2013-03-10 03:36:00,34.2,33.4,30.50,WSW,248,0.0,0.0,97,0.00,CLR,,0.00,WeatherDisplay:10.37,2013-03-10 10:36:00,
2013-03-10 03:41:00,34.1,33.1,30.50,WSW,249,0.0,0.0,96,0.00,CLR,,0.00,WeatherDisplay:10.37,2013-03-10 10:41:00,
2013-03-10 03:46:00,34.1,33.3,30.50,WSW,249,0.0,0.0,97,0.00,CLR,,0.00,WeatherDisplay:10.37,2013-03-10 10:46:00,
2013-03-10 03:51:00,34.0,33.2,30.50,WSW,249,0.0,0.0,97,0.00,CLR,,0.00,WeatherDisplay:10.37,2013-03-10 10:51:00,
2013-03-10 03:56:00,34.0,33.2,30.50,WSW,249,0.0,0.0,97,0.00,CLR,,0.00,WeatherDisplay:10.37,2013-03-10 10:56:00,
2013-03-10 04:01:00,34.0,33.2,30.50,WSW,249,0.0,0.0,97,0.00,CLR,,0.00,WeatherDisplay:10.37,2013-03-10 11:01:00,
2013-03-10 04:11:00,33.9,33.1,30.50,WSW,249,0.0,0.0,97,0.00,CLR,,0.00,WeatherDisplay:10.37,2013-03-10 11:11:00,
2013-03-10 04:16:00,33.9,33.1,30.49,WSW,249,0.0,0.0,97,0.00,FEW,,0.00,WeatherDisplay:10.37,2013-03-10 11:16:00,
2013-03-10 04:21:00,33.9,33.1,30.49,WSW,249,0.0,0.0,97,0.00,FEW,,0.00,WeatherDisplay:10.37,2013-03-10 11:21:00,
2013-03-10 04:26:00,34.0,33.2,30.49,WSW,249,0.0,0.0,97,0.00,FEW,,0.00,WeatherDisplay:10.37,2013-03-10 11:26:00,
2013-03-10 04:31:00,34.1,33.3,30.50,WSW,249,0.0,0.0,97,0.00,FEW,,0.00,WeatherDisplay:10.37,2013-03-10 11:31:00,
2013-03-10 04:36:00,34.2,33.4,30.50,WSW,249,0.0,0.0,97,0.00,FEW,,0.00,WeatherDisplay:10.37,2013-03-10 11:36:00,
2013-03-10 04:41:00,34.2,33.4,30.50,WSW,249,0.0,0.0,97,0.00,FEW,,0.00,WeatherDisplay:10.37,2013-03-10 11:41:00,
2013-03-10 04:46:00,34.2,33.4,30.50,WSW,249,0.0,0.0,97,0.00,FEW,,0.00,WeatherDisplay:10.37,2013-03-10 11:46:00,
2013-03-10 04:51:00,34.2,33.4,30.49,WSW,249,0.0,0.0,97,0.00,FEW,,0.00,WeatherDisplay:10.37,2013-03-10 11:51:00,
2013-03-10 04:56:00,34.3,33.5,30.49,WSW,249,0.0,0.0,97,0.00,FEW,,0.00,WeatherDisplay:10.37,2013-03-10 11:56:00,
2013-03-10 05:01:00,34.5,33.7,30.50,WSW,249,0.0,0.0,97,0.00,OVC,,0.00,WeatherDisplay:10.37,2013-03-10 12:01:00,
2013-03-10 05:11:00,34.8,34.0,30.49,WSW,249,0.0,1.0,97,0.00,OVC,,0.00,WeatherDisplay:10.37,2013-03-10 12:11:00,
2013-03-10 05:16:00,34.9,34.1,30.49,WSW,249,0.0,0.0,97,0.00,OVC,,0.00,WeatherDisplay:10.37,2013-03-10 12:16:00,
2013-03-10 05:21:00,34.9,34.1,30.50,WSW,249,0.0,0.0,97,0.00,OVC,,0.00,WeatherDisplay:10.37,2013-03-10 12:21:00,
2013-03-10 05:26:00,35.1,34.3,30.50,WSW,249,0.0,0.0,97,0.00,OVC,,0.00,WeatherDisplay:10.37,2013-03-10 12:26:00,
2013-03-10 05:31:00,35.2,34.4,30.50,WSW,249,0.0,0.0,97,0.00,OVC,,0.00,WeatherDisplay:10.37,2013-03-10 12:31:00,
2013-03-10 05:36:00,35.3,34.5,30.50,WSW,249,0.0,0.0,97,0.00,OVC,,0.00,WeatherDisplay:10.37,2013-03-10 12:36:00,
2013-03-10 05:41:00,35.4,34.6,30.50,WSW,249,0.0,0.0,97,0.00,OVC,,0.00,WeatherDisplay:10.37,2013-03-10 12:41:00,
2013-03-10 05:46:00,35.5,34.7,30.51,WSW,249,0.0,0.0,97,0.00,OVC,,0.00,WeatherDisplay:10.37,2013-03-10 12:46:00,
2013-03-10 05:51:00,35.5,34.7,30.51,WSW,249,0.0,0.0,97,0.00,OVC,,0.00,WeatherDisplay:10.37,2013-03-10 12:51:00,
2013-03-10 05:56:00,35.6,34.8,30.51,WSW,249,0.0,0.0,97,0.00,OVC,,0.00,WeatherDisplay:10.37,2013-03-10 12:56:00,
2013-03-10 06:01:00,35.7,34.9,30.51,WSW,249,0.0,0.0,97,0.00,OVC,,0.00,WeatherDisplay:10.37,2013-03-10 13:01:00,
2013-03-10 06:11:00,35.8,35.0,30.51,WSW,249,0.0,0.0,97,0.00,OVC,,0.00,WeatherDisplay:10.37,2013-03-10 13:11:00,
2013-03-10 06:16:00,35.7,35.0,30.50,WSW,249,0.0,0.0,97,0.00,OVC,,0.00,WeatherDisplay:10.37,2013-03-10 13:16:00,
2013-03-10 06:21:00,35.7,34.9,30.50,WSW,249,0.0,0.0,97,0.00,OVC,,0.00,WeatherDisplay:10.37,2013-03-10 13:21:00,
2013-03-10 06:26:00,35.7,34.9,30.50,WSW,249,0.0,0.0,97,0.00,OVC,,0.00,WeatherDisplay:10.37,2013-03-10 13:26:00,
2013-03-10 06:31:00,35.7,34.9,30.50,WSW,249,0.0,0.0,97,0.00,OVC,,0.00,WeatherDisplay:10.37,2013-03-10 13:31:00,
2013-03-10 06:36:00,35.8,35.0,30.50,WSW,249,0.0,0.0,97,0.00,OVC,,0.00,WeatherDisplay:10.37,2013-03-10 13:36:00,
2013-03-10 06:41:00,35.8,35.0,30.50,WSW,249,0.0,0.0,97,0.00,OVC,,0.00,WeatherDisplay:10.37,2013-03-10 13:41:00,
2013-03-10 06:46:00,35.8,35.0,30.50,WSW,248,0.0,0.0,97,0.00,OVC,,0.00,WeatherDisplay:10.37,2013-03-10 13:46:00,
2013-03-10 06:51:00,35.8,35.0,30.50,WSW,249,0.0,0.0,97,0.00,OVC,,0.00,WeatherDisplay:10.37,2013-03-10 13:51:00,
2013-03-10 06:56:00,35.8,34.8,30.49,WSW,249,0.0,0.0,96,0.00,OVC,,0.00,WeatherDisplay:10.37,2013-03-10 13:56:00,
2013-03-10 07:01:00,35.8,34.8,30.50,WSW,249,0.0,0.0,96,0.00,OVC,,0.00,WeatherDisplay:10.37,2013-03-10 14:01:00,
2013-03-10 07:11:00,35.9,34.8,30.49,WSW,249,0.0,0.0,96,0.00,OVC,,0.00,WeatherDisplay:10.37,2013-03-10 14:11:00,
2013-03-10 07:16:00,35.9,34.9,30.49,WSW,249,0.0,0.0,96,0.00,OVC,,0.00,WeatherDisplay:10.37,2013-03-10 14:16:00,
2013-03-10 07:21:00,35.9,34.9,30.49,WSW,249,0.0,0.0,96,0.00,OVC,,0.00,WeatherDisplay:10.37,2013-03-10 14:21:00,
2013-03-10 07:26:00,36.0,35.0,30.49,WSW,249,0.0,0.0,96,0.00,OVC,,0.00,WeatherDisplay:10.37,2013-03-10 14:26:00,
2013-03-10 07:31:00,36.0,35.0,30.49,WSW,249,0.0,0.0,96,0.00,OVC,,0.00,WeatherDisplay:10.37,2013-03-10 14:31:00,
2013-03-10 07:36:00,36.0,35.0,30.49,WSW,248,0.0,0.0,96,0.00,OVC,,0.00,WeatherDisplay:10.37,2013-03-10 14:36:00,
2013-03-10 07:41:00,36.1,35.1,30.49,WSW,248,0.0,0.0,96,0.00,OVC,,0.00,WeatherDisplay:10.37,2013-03-10 14:41:00,
2013-03-10 07:46:00,36.1,35.1,30.49,WSW,249,0.0,0.0,96,0.00,OVC,,0.00,WeatherDisplay:10.37,2013-03-10 14:46:00,
2013-03-10 07:51:00,36.2,35.2,30.49,WSW,249,0.0,0.0,96,0.00,OVC,,0.00,WeatherDisplay:10.37,2013-03-10 14:51:00,
2013-03-10 07:56:00,36.2,35.2,30.49,WSW,249,0.0,0.0,96,0.00,OVC,,0.00,WeatherDisplay:10.37,2013-03-10 14:56:00,
2013-03-10 08:01:00,36.3,35.3,30.49,WSW,249,0.0,0.0,96,0.00,OVC,,0.00,WeatherDisplay:10.37,2013-03-10 15:01:00,
2013-03-10 08:11:00,36.5,35.5,30.48,WSW,249,0.0,0.0,96,0.00,OVC,,0.00,WeatherDisplay:10.37,2013-03-10 15:11:00,
2013-03-10 08:16:00,36.6,35.6,30.48,WSW,249,0.0,0.0,96,0.00,OVC,,0.00,WeatherDisplay:10.37,2013-03-10 15:16:00,
2013-03-10 08:21:00,36.8,35.8,30.48,WSW,249,0.0,1.0,96,0.00,OVC,,0.00,WeatherDisplay:10.37,2013-03-10 15:21:00,
2013-03-10 08:26:00,36.9,35.9,30.48,SW,234,0.0,1.0,96,0.00,OVC,,0.00,WeatherDisplay:10.37,2013-03-10 15:26:00,
2013-03-10 08:31:00,37.1,36.1,30.49,South,170,0.0,0.0,96,0.00,OVC,,0.00,WeatherDisplay:10.37,2013-03-10 15:31:00,
2013-03-10 08:36:00,37.4,36.3,30.48,SSE,149,0.0,0.0,96,0.00,OVC,,0.00,WeatherDisplay:10.37,2013-03-10 15:36:00,
2013-03-10 08:41:00,37.5,36.5,30.48,SSE,149,0.0,0.0,96,0.00,OVC,,0.00,WeatherDisplay:10.37,2013-03-10 15:41:00,
2013-03-10 08:46:00,37.7,36.7,30.48,SSE,149,0.0,0.0,96,0.00,OVC,,0.00,WeatherDisplay:10.37,2013-03-10 15:46:00,
2013-03-10 08:56:00,37.9,36.6,30.48,West,264,0.0,1.0,95,0.00,OVC,,0.00,WeatherDisplay:10.37,2013-03-10 15:56:00,
2013-03-10 09:01:00,38.0,36.7,30.48,NW,311,0.0,1.0,95,0.00,OVC,,0.00,WeatherDisplay:10.37,2013-03-10 16:01:00,
2013-03-10 09:11:00,38.1,36.5,30.48,NNW,342,0.0,1.0,94,0.00,OVC,,0.00,WeatherDisplay:10.37,2013-03-10 16:11:00,
2013-03-10 09:16:00,38.1,36.3,30.49,NE,49,0.0,1.0,93,0.00,OVC,,0.00,WeatherDisplay:10.37,2013-03-10 16:16:00,
2013-03-10 09:21:00,38.4,36.5,30.49,ENE,59,0.0,1.0,93,0.00,OVC,,0.00,WeatherDisplay:10.37,2013-03-10 16:21:00,
2013-03-10 09:26:00,38.5,36.7,30.48,ENE,60,0.0,1.0,93,0.00,OVC,,0.00,WeatherDisplay:10.37,2013-03-10 16:26:00,
2013-03-10 09:31:00,38.8,36.9,30.48,ENE,60,0.0,0.0,93,0.00,OVC,,0.00,WeatherDisplay:10.37,2013-03-10 16:31:00,
2013-03-10 09:36:00,39.0,37.1,30.48,ENE,59,0.0,1.0,93,0.00,OVC,,0.00,WeatherDisplay:10.37,2013-03-10 16:36:00,
2013-03-10 09:41:00,39.1,36.9,30.48,ENE,60,0.0,1.0,92,0.00,OVC,,0.00,WeatherDisplay:10.37,2013-03-10 16:41:00,
2013-03-10 09:46:00,39.4,37.6,30.48,ENE,60,0.0,1.0,93,0.00,OVC,,0.00,WeatherDisplay:10.37,2013-03-10 16:46:00,
2013-03-10 09:51:00,39.7,37.6,30.48,ENE,60,0.0,1.0,92,0.00,OVC,,0.00,WeatherDisplay:10.37,2013-03-10 16:51:00,
2013-03-10 09:56:00,40.1,38.0,30.48,NE,49,0.0,1.0,92,0.00,OVC,,0.00,WeatherDisplay:10.37,2013-03-10 16:56:00,
2013-03-10 10:01:00,40.4,37.7,30.48,NNW,344,0.0,1.0,90,0.00,OVC,,0.00,WeatherDisplay:10.37,2013-03-10 17:01:00,
2013-03-10 10:11:00,40.9,37.9,30.48,North,1,0.0,1.0,89,0.00,OVC,,0.00,WeatherDisplay:10.37,2013-03-10 17:11:00,
2013-03-10 10:16:00,41.2,38.2,30.48,ESE,121,0.0,1.0,89,0.00,OVC,,0.00,WeatherDisplay:10.37,2013-03-10 17:16:00,
2013-03-10 10:21:00,41.5,38.2,30.48,ESE,107,1.0,1.0,88,0.00,OVC,,0.00,WeatherDisplay:10.37,2013-03-10 17:21:00,
2013-03-10 10:26:00,41.8,38.5,30.48,ENE,68,0.0,1.0,88,0.00,OVC,,0.00,WeatherDisplay:10.37,2013-03-10 17:26:00,
2013-03-10 10:31:00,42.0,38.7,30.48,NNE,29,0.0,1.0,88,0.00,OVC,,0.00,WeatherDisplay:10.37,2013-03-10 17:31:00,
2013-03-10 10:36:00,42.1,38.2,30.48,East,94,0.0,2.0,86,0.00,OVC,,0.00,WeatherDisplay:10.37,2013-03-10 17:36:00,
2013-03-10 10:41:00,42.2,38.3,30.48,East,98,0.0,1.0,86,0.00,OVC,,0.00,WeatherDisplay:10.37,2013-03-10 17:41:00,
2013-03-10 10:46:00,42.5,38.9,30.48,East,83,0.0,1.0,87,0.00,OVC,,0.00,WeatherDisplay:10.37,2013-03-10 17:46:00,
2013-03-10 10:51:00,42.8,38.9,30.48,NNE,29,0.0,1.0,86,0.00,OVC,,0.00,WeatherDisplay:10.37,2013-03-10 17:51:00,
2013-03-10 10:56:00,43.0,38.8,30.48,NE,36,0.0,1.0,85,0.00,OVC,,0.00,WeatherDisplay:10.37,2013-03-10 17:56:00,
2013-03-10 11:01:00,42.9,38.7,30.48,East,89,0.0,1.0,85,0.00,OVC,,0.00,WeatherDisplay:10.37,2013-03-10 18:01:00,
2013-03-10 11:11:00,42.8,38.6,30.48,East,96,0.0,1.0,85,0.00,OVC,,0.00,WeatherDisplay:10.37,2013-03-10 18:11:00,
2013-03-10 11:16:00,43.0,39.1,30.48,East,96,0.0,1.0,86,0.00,OVC,,0.00,WeatherDisplay:10.37,2013-03-10 18:16:00,
2013-03-10 11:21:00,43.2,39.3,30.48,East,96,0.0,1.0,86,0.00,OVC,,0.00,WeatherDisplay:10.37,2013-03-10 18:21:00,
2013-03-10 11:26:00,43.3,39.1,30.48,East,96,0.0,1.0,85,0.00,OVC,,0.00,WeatherDisplay:10.37,2013-03-10 18:26:00,
2013-03-10 11:31:00,43.5,39.3,30.48,East,96,0.0,1.0,85,0.00,OVC,,0.00,WeatherDisplay:10.37,2013-03-10 18:31:00,
2013-03-10 11:36:00,43.5,39.0,30.48,East,96,0.0,1.0,84,0.00,OVC,,0.00,WeatherDisplay:10.37,2013-03-10 18:36:00,
2013-03-10 11:41:00,43.7,39.5,30.48,East,96,0.0,1.0,85,0.00,OVC,,0.00,WeatherDisplay:10.37,2013-03-10 18:41:00,
2013-03-10 11:46:00,43.9,40.0,30.47,East,97,0.0,1.0,86,0.00,OVC,,0.00,WeatherDisplay:10.37,2013-03-10 18:46:00,
2013-03-10 11:51:00,44.0,40.1,30.48,East,98,0.0,1.0,86,0.00,OVC,,0.00,WeatherDisplay:10.37,2013-03-10 18:51:00,
2013-03-10 11:56:00,44.2,40.0,30.48,SSE,148,1.0,3.0,85,0.00,OVC,,0.00,WeatherDisplay:10.37,2013-03-10 18:56:00,
2013-03-10 12:01:00,44.1,39.9,30.48,WSW,241,0.0,2.0,85,0.00,-RA,,0.00,WeatherDisplay:10.37,2013-03-10 19:01:00,
2013-03-10 12:11:00,44.4,39.9,30.47,SW,235,0.0,2.0,84,0.00,-RA,,0.00,WeatherDisplay:10.37,2013-03-10 19:11:00,
2013-03-10 12:16:00,44.3,39.8,30.47,WSW,243,2.0,4.0,84,0.00,-RA,,0.00,WeatherDisplay:10.37,2013-03-10 19:16:00,
2013-03-10 12:21:00,44.0,39.5,30.47,WSW,241,1.0,4.0,84,0.00,-RA,,0.00,WeatherDisplay:10.37,2013-03-10 19:21:00,
2013-03-10 12:26:00,44.0,39.5,30.47,WSW,252,1.0,3.0,84,0.00,-RA,,0.00,WeatherDisplay:10.37,2013-03-10 19:26:00,
2013-03-10 12:31:00,44.1,40.2,30.47,WSW,248,1.0,4.0,86,0.00,-RA,,0.00,WeatherDisplay:10.37,2013-03-10 19:31:00,
2013-03-10 12:36:00,44.4,39.9,30.47,SE,136,2.0,4.0,84,0.00,-RA,,0.00,WeatherDisplay:10.37,2013-03-10 19:36:00,
2013-03-10 12:41:00,44.4,39.6,30.47,SE,136,0.0,4.0,83,0.00,-RA,,0.00,WeatherDisplay:10.37,2013-03-10 19:41:00,
2013-03-10 12:46:00,44.7,40.2,30.47,SE,133,0.0,1.0,84,0.00,-RA,,0.00,WeatherDisplay:10.37,2013-03-10 19:46:00,
2013-03-10 12:51:00,45.0,40.1,30.47,SE,145,0.0,3.0,83,0.00,-RA,,0.00,WeatherDisplay:10.37,2013-03-10 19:51:00,
2013-03-10 12:56:00,45.1,39.3,30.47,SE,141,1.0,4.0,80,0.00,-RA,,0.00,WeatherDisplay:10.37,2013-03-10 19:56:00,
2013-03-10 13:01:00,44.9,39.1,30.47,SE,135,1.0,5.0,80,0.00,-RA,,0.00,WeatherDisplay:10.37,2013-03-10 20:01:00,
2013-03-10 13:11:00,45.5,38.7,30.47,SW,232,2.0,5.0,77,0.00,-RA,,0.00,WeatherDisplay:10.37,2013-03-10 20:11:00,
2013-03-10 13:16:00,45.8,38.3,30.46,SSW,207,1.0,5.0,75,0.00,-RA,,0.00,WeatherDisplay:10.37,2013-03-10 20:16:00,
2013-03-10 13:21:00,46.0,38.1,30.47,South,171,1.0,4.0,74,0.00,-RA,,0.00,WeatherDisplay:10.37,2013-03-10 20:21:00,
2013-03-10 13:26:00,46.2,38.4,30.47,SSE,156,1.0,3.0,74,0.00,-RA,,0.00,WeatherDisplay:10.37,2013-03-10 20:26:00,
2013-03-10 13:31:00,46.1,38.3,30.46,SSE,147,1.0,3.0,74,0.00,-RA,,0.00,WeatherDisplay:10.37,2013-03-10 20:31:00,
2013-03-10 13:36:00,46.4,38.2,30.46,SE,141,2.0,4.0,73,0.00,-RA,,0.00,WeatherDisplay:10.37,2013-03-10 20:36:00,
2013-03-10 13:41:00,46.6,38.7,30.46,South,170,1.0,3.0,74,0.00,-RA,,0.00,WeatherDisplay:10.37,2013-03-10 20:41:00,
2013-03-10 13:51:00,47.1,38.9,30.46,ESE,123,1.0,2.0,73,0.00,-RA,,0.00,WeatherDisplay:10.37,2013-03-10 20:51:00,
2013-03-10 13:56:00,47.3,39.1,30.46,SSE,147,1.0,2.0,73,0.00,-RA,,0.00,WeatherDisplay:10.37,2013-03-10 20:56:00,
2013-03-10 14:01:00,47.4,39.2,30.46,SSE,164,0.0,4.0,73,0.00,OVC,,0.00,WeatherDisplay:10.37,2013-03-10 21:01:00,
2013-03-10 14:11:00,47.1,38.9,30.46,SW,235,0.0,1.0,73,0.00,OVC,,0.00,WeatherDisplay:10.37,2013-03-10 21:11:00,
2013-03-10 14:16:00,47.1,39.2,30.46,SSE,168,1.0,3.0,74,0.00,OVC,,0.00,WeatherDisplay:10.37,2013-03-10 21:16:00,
2013-03-10 14:26:00,46.6,38.8,30.46,ESE,114,1.0,4.0,74,0.00,OVC,,0.00,WeatherDisplay:10.37,2013-03-10 21:26:00,
2013-03-10 14:31:00,46.5,39.0,30.45,SE,143,0.0,3.0,75,0.00,OVC,,0.00,WeatherDisplay:10.37,2013-03-10 21:31:00,
2013-03-10 14:36:00,46.5,38.7,30.45,SSE,147,0.0,3.0,74,0.00,OVC,,0.00,WeatherDisplay:10.37,2013-03-10 21:36:00,
2013-03-10 14:41:00,46.5,39.0,30.45,ESE,102,1.0,2.0,75,0.00,OVC,,0.00,WeatherDisplay:10.37,2013-03-10 21:41:00,
2013-03-10 14:46:00,46.6,39.4,30.45,East,88,1.0,2.0,76,0.00,OVC,,0.00,WeatherDisplay:10.37,2013-03-10 21:46:00,
2013-03-10 14:51:00,46.5,40.0,30.45,SE,138,1.0,3.0,78,0.00,OVC,,0.00,WeatherDisplay:10.37,2013-03-10 21:51:00,
2013-03-10 14:56:00,46.3,40.2,30.45,SSE,155,0.0,2.0,79,0.00,OVC,,0.00,WeatherDisplay:10.37,2013-03-10 21:56:00,
2013-03-10 15:01:00,46.2,40.4,30.45,SSE,162,0.0,4.0,80,0.00,OVC,,0.00,WeatherDisplay:10.37,2013-03-10 22:01:00,
2013-03-10 15:11:00,46.3,40.5,30.44,SSE,150,0.0,3.0,80,0.00,OVC,,0.00,WeatherDisplay:10.37,2013-03-10 22:11:00,
2013-03-10 15:16:00,46.2,40.4,30.45,East,99,0.0,2.0,80,0.00,OVC,,0.00,WeatherDisplay:10.37,2013-03-10 22:16:00,
2013-03-10 15:21:00,46.0,40.5,30.45,ESE,118,1.0,2.0,81,0.00,OVC,,0.00,WeatherDisplay:10.37,2013-03-10 22:21:00,
2013-03-10 15:26:00,45.9,40.4,30.45,ESE,117,0.0,2.0,81,0.00,OVC,,0.00,WeatherDisplay:10.37,2013-03-10 22:26:00,
2013-03-10 15:31:00,45.8,40.9,30.45,East,100,0.0,1.0,83,0.00,OVC,,0.00,WeatherDisplay:10.37,2013-03-10 22:31:00,
2013-03-10 15:36:00,45.7,40.5,30.45,ESE,112,0.0,1.0,82,0.00,OVC,,0.00,WeatherDisplay:10.37,2013-03-10 22:36:00,
2013-03-10 15:46:00,45.4,40.8,30.45,ESE,119,0.0,1.0,84,0.00,OVC,,0.00,WeatherDisplay:10.37,2013-03-10 22:46:00,
2013-03-10 15:51:00,45.3,40.4,30.45,SE,133,0.0,1.0,83,0.00,OVC,,0.00,WeatherDisplay:10.37,2013-03-10 22:51:00,
2013-03-10 15:56:00,45.2,40.7,30.45,SE,137,0.0,1.0,84,0.00,OVC,,0.00,WeatherDisplay:10.37,2013-03-10 22:56:00,
2013-03-10 16:06:00,45.1,41.1,30.45,North,349,0.0,1.0,86,0.00,OVC,,0.00,WeatherDisplay:10.37,2013-03-10 23:06:00,
2013-03-10 16:11:00,45.0,41.4,30.45,North,357,0.0,1.0,87,0.00,OVC,,0.00,WeatherDisplay:10.37,2013-03-10 23:11:00,
2013-03-10 16:16:00,44.9,41.2,30.45,North,360,0.0,1.0,87,0.00,OVC,,0.00,WeatherDisplay:10.37,2013-03-10 23:16:00,
2013-03-10 16:21:00,44.8,41.5,30.45,North,0,0.0,1.0,88,0.00,OVC,,0.00,WeatherDisplay:10.37,2013-03-10 23:21:00,
2013-03-10 16:26:00,44.7,41.4,30.45,ESE,102,0.0,1.0,88,0.00,OVC,,0.00,WeatherDisplay:10.37,2013-03-10 23:26:00,
2013-03-10 16:31:00,44.8,41.7,30.45,SSE,148,0.0,0.0,89,0.00,-RA,,0.00,WeatherDisplay:10.37,2013-03-10 23:31:00,
2013-03-10 16:36:00,44.8,41.5,30.45,SSE,147,0.0,1.0,88,0.00,-RA,,0.00,WeatherDisplay:10.37,2013-03-10 23:36:00,
2013-03-10 16:46:00,44.9,41.6,30.45,SE,144,0.0,0.0,88,0.00,-RA,,0.00,WeatherDisplay:10.37,2013-03-10 23:46:00,
2013-03-10 16:51:00,44.9,41.6,30.44,SSE,151,0.0,2.0,88,0.00,-RA,,0.00,WeatherDisplay:10.37,2013-03-10 23:51:00,
2013-03-10 16:56:00,44.9,41.6,30.44,ESE,116,1.0,2.0,88,0.00,-RA,,0.00,WeatherDisplay:10.37,2013-03-10 23:56:00,
2013-03-10 17:01:00,44.8,41.1,30.44,NE,34,0.0,2.0,87,0.00,-RA,,0.00,WeatherDisplay:10.37,2013-03-11 00:01:00,
2013-03-10 17:11:00,44.6,41.3,30.44,SSE,147,0.0,1.0,88,0.00,-RA,,0.00,WeatherDisplay:10.37,2013-03-11 00:11:00,
2013-03-10 17:16:00,44.5,40.9,30.44,SSE,150,0.0,1.0,87,0.00,OVC,,0.00,WeatherDisplay:10.37,2013-03-11 00:16:00,
2013-03-10 17:21:00,44.4,40.8,30.44,SE,128,0.0,2.0,87,0.00,OVC,,0.00,WeatherDisplay:10.37,2013-03-11 00:21:00,
2013-03-10 17:26:00,44.3,41.0,30.44,East,101,0.0,0.0,88,0.00,OVC,,0.00,WeatherDisplay:10.37,2013-03-11 00:26:00,
2013-03-10 17:31:00,44.2,40.9,30.44,ESE,102,0.0,0.0,88,0.00,OVC,,0.00,WeatherDisplay:10.37,2013-03-11 00:31:00,
2013-03-10 17:36:00,44.1,40.8,30.44,East,98,0.0,1.0,88,0.00,OVC,,0.00,WeatherDisplay:10.37,2013-03-11 00:36:00,
2013-03-10 17:41:00,44.0,40.7,30.44,East,92,0.0,0.0,88,0.00,OVC,,0.00,WeatherDisplay:10.37,2013-03-11 00:41:00,
2013-03-10 17:46:00,44.0,40.7,30.44,East,92,0.0,0.0,88,0.00,OVC,,0.00,WeatherDisplay:10.37,2013-03-11 00:46:00,
2013-03-10 17:51:00,43.9,40.6,30.44,East,92,0.0,0.0,88,0.00,OVC,,0.00,WeatherDisplay:10.37,2013-03-11 00:51:00,
2013-03-10 17:56:00,43.9,40.6,30.44,East,92,0.0,0.0,88,0.00,OVC,,0.00,WeatherDisplay:10.37,2013-03-11 00:56:00,
2013-03-10 18:01:00,43.8,40.5,30.44,East,92,0.0,0.0,88,0.00,OVC,,0.00,WeatherDisplay:10.37,2013-03-11 01:01:00,
2013-03-10 18:11:00,43.8,40.8,30.44,East,92,0.0,0.0,89,0.00,OVC,,0.00,WeatherDisplay:10.37,2013-03-11 01:11:00,
2013-03-10 18:16:00,43.8,40.8,30.44,East,92,0.0,0.0,89,0.00,OVC,,0.00,WeatherDisplay:10.37,2013-03-11 01:16:00,
2013-03-10 18:21:00,43.8,40.7,30.44,East,92,0.0,0.0,89,0.00,OVC,,0.00,WeatherDisplay:10.37,2013-03-11 01:21:00,
2013-03-10 18:26:00,43.7,40.7,30.44,East,94,0.0,1.0,89,0.00,OVC,,0.00,WeatherDisplay:10.37,2013-03-11 01:26:00,
2013-03-10 18:31:00,43.7,40.7,30.44,SE,134,0.0,1.0,89,0.00,OVC,,0.00,WeatherDisplay:10.37,2013-03-11 01:31:00,
2013-03-10 18:36:00,43.7,40.3,30.44,SSE,155,0.0,0.0,88,0.00,OVC,,0.00,WeatherDisplay:10.37,2013-03-11 01:36:00,
2013-03-10 18:41:00,43.6,40.6,30.44,SSE,155,0.0,0.0,89,0.00,OVC,,0.00,WeatherDisplay:10.37,2013-03-11 01:41:00,
2013-03-10 18:46:00,43.6,40.6,30.44,SSE,155,0.0,0.0,89,0.00,OVC,,0.00,WeatherDisplay:10.37,2013-03-11 01:46:00,
2013-03-10 18:51:00,43.6,40.6,30.44,SSE,155,0.0,0.0,89,0.00,OVC,,0.00,WeatherDisplay:10.37,2013-03-11 01:51:00,
2013-03-10 18:56:00,43.5,40.8,30.44,SSE,155,0.0,1.0,90,0.00,OVC,,0.00,WeatherDisplay:10.37,2013-03-11 01:56:00,
2013-03-10 19:01:00,43.5,40.8,30.44,SSE,153,0.0,1.0,90,0.00,OVC,,0.00,WeatherDisplay:10.37,2013-03-11 02:01:00,
2013-03-10 19:11:00,43.6,40.8,30.44,SSE,149,0.0,1.0,90,0.00,OVC,,0.00,WeatherDisplay:10.37,2013-03-11 02:11:00,
2013-03-10 19:16:00,43.5,41.0,30.44,SSE,149,0.0,0.0,91,0.00,OVC,,0.00,WeatherDisplay:10.37,2013-03-11 02:16:00,
2013-03-10 19:21:00,43.5,41.0,30.44,SSE,149,0.0,0.0,91,0.00,OVC,,0.00,WeatherDisplay:10.37,2013-03-11 02:21:00,
2013-03-10 19:26:00,43.5,41.0,30.44,SSE,152,0.0,0.0,91,0.00,OVC,,0.00,WeatherDisplay:10.37,2013-03-11 02:26:00,
2013-03-10 19:31:00,43.5,41.0,30.44,South,187,1.0,3.0,91,0.00,OVC,,0.00,WeatherDisplay:10.37,2013-03-11 02:31:00,
2013-03-10 19:36:00,43.5,41.4,30.44,WSW,241,0.0,2.0,92,0.00,OVC,,0.00,WeatherDisplay:10.37,2013-03-11 02:36:00,
2013-03-10 19:41:00,43.6,41.4,30.44,WSW,244,0.0,2.0,92,0.00,OVC,,0.00,WeatherDisplay:10.37,2013-03-11 02:41:00,
2013-03-10 19:46:00,43.6,41.4,30.44,SW,235,0.0,2.0,92,0.00,OVC,,0.00,WeatherDisplay:10.37,2013-03-11 02:46:00,
2013-03-10 19:51:00,43.6,41.4,30.44,SW,232,0.0,1.0,92,0.00,OVC,,0.00,WeatherDisplay:10.37,2013-03-11 02:51:00,
2013-03-10 19:56:00,43.5,41.3,30.44,SW,232,0.0,1.0,92,0.00,OVC,,0.00,WeatherDisplay:10.37,2013-03-11 02:56:00,
2013-03-10 20:01:00,43.5,41.3,30.44,SW,234,0.0,2.0,92,0.00,OVC,,0.00,WeatherDisplay:10.37,2013-03-11 03:01:00,
2013-03-10 20:11:00,43.5,41.3,30.45,SW,235,0.0,1.0,92,0.00,OVC,,0.00,WeatherDisplay:10.37,2013-03-11 03:11:00,
2013-03-10 20:16:00,43.5,41.0,30.44,SW,232,0.0,1.0,91,0.00,OVC,,0.00,WeatherDisplay:10.37,2013-03-11 03:16:00,
2013-03-10 20:21:00,43.5,41.0,30.45,SW,226,0.0,1.0,91,0.00,OVC,,0.00,WeatherDisplay:10.37,2013-03-11 03:21:00,
2013-03-10 20:26:00,43.5,41.0,30.44,SW,225,0.0,1.0,91,0.00,OVC,,0.00,WeatherDisplay:10.37,2013-03-11 03:26:00,
2013-03-10 20:31:00,43.5,41.0,30.44,SW,225,0.0,0.0,91,0.00,OVC,,0.00,WeatherDisplay:10.37,2013-03-11 03:31:00,
2013-03-10 20:36:00,43.5,41.3,30.44,SW,225,0.0,0.0,92,0.01,RA,,0.01,WeatherDisplay:10.37,2013-03-11 03:36:00,
2013-03-10 20:41:00,43.5,41.3,30.45,SW,225,0.0,0.0,92,0.00,RA,,0.01,WeatherDisplay:10.37,2013-03-11 03:41:00,
2013-03-10 20:46:00,43.4,41.2,30.44,SW,225,0.0,0.0,92,0.00,OVC,,0.01,WeatherDisplay:10.37,2013-03-11 03:46:00,
2013-03-10 20:51:00,43.3,41.4,30.45,SW,228,0.0,1.0,93,0.00,OVC,,0.01,WeatherDisplay:10.37,2013-03-11 03:51:00,
2013-03-10 20:56:00,43.3,41.4,30.45,WSW,238,0.0,1.0,93,0.00,OVC,,0.01,WeatherDisplay:10.37,2013-03-11 03:56:00,
2013-03-10 21:01:00,43.3,41.4,30.45,WSW,240,0.0,1.0,93,0.00,OVC,,0.01,WeatherDisplay:10.37,2013-03-11 04:01:00,
2013-03-10 21:11:00,43.2,41.3,30.45,WSW,241,0.0,0.0,93,0.00,OVC,,0.01,WeatherDisplay:10.37,2013-03-11 04:11:00,
2013-03-10 21:21:00,43.0,41.4,30.45,WSW,241,0.0,0.0,94,0.00,OVC,,0.01,WeatherDisplay:10.37,2013-03-11 04:21:00,
2013-03-10 21:26:00,42.9,41.3,30.45,WSW,240,0.0,0.0,94,0.00,OVC,,0.01,WeatherDisplay:10.37,2013-03-11 04:26:00,
2013-03-10 21:31:00,42.8,41.2,30.45,WSW,240,0.0,0.0,94,0.00,OVC,,0.01,WeatherDisplay:10.37,2013-03-11 04:31:00,
2013-03-10 21:36:00,42.8,41.2,30.45,WSW,240,0.0,0.0,94,0.00,OVC,,0.01,WeatherDisplay:10.37,2013-03-11 04:36:00,
2013-03-10 21:41:00,42.7,41.1,30.44,WSW,241,0.0,0.0,94,0.00,OVC,,0.01,WeatherDisplay:10.37,2013-03-11 04:41:00,
2013-03-10 21:46:00,42.7,41.4,30.44,WSW,241,0.0,0.0,95,0.00,OVC,,0.01,WeatherDisplay:10.37,2013-03-11 04:46:00,
2013-03-10 21:56:00,42.6,41.3,30.44,WSW,240,0.0,0.0,95,0.00,OVC,,0.01,WeatherDisplay:10.37,2013-03-11 04:56:00,
2013-03-10 22:01:00,42.6,41.3,30.44,WSW,240,0.0,0.0,95,0.00,OVC,,0.01,WeatherDisplay:10.37,2013-03-11 05:01:00,
2013-03-10 22:11:00,42.5,41.2,30.44,WSW,241,0.0,0.0,95,0.00,OVC,,0.01,WeatherDisplay:10.37,2013-03-11 05:11:00,
2013-03-10 22:16:00,42.5,41.2,30.44,WSW,241,0.0,0.0,95,0.00,OVC,,0.01,WeatherDisplay:10.37,2013-03-11 05:16:00,
2013-03-10 22:21:00,42.4,41.1,30.44,WSW,241,0.0,0.0,95,0.00,OVC,,0.01,WeatherDisplay:10.37,2013-03-11 05:21:00,
2013-03-10 22:26:00,42.4,41.1,30.44,WSW,241,0.0,0.0,95,0.00,OVC,,0.01,WeatherDisplay:10.37,2013-03-11 05:26:00,
2013-03-10 22:31:00,42.4,41.1,30.44,WSW,241,0.0,0.0,95,0.00,OVC,,0.01,WeatherDisplay:10.37,2013-03-11 05:31:00,
2013-03-10 22:36:00,42.4,41.0,30.44,WSW,240,0.0,0.0,95,0.00,OVC,,0.01,WeatherDisplay:10.37,2013-03-11 05:36:00,
2013-03-10 22:41:00,42.3,41.0,30.44,WSW,241,0.0,0.0,95,0.00,OVC,,0.01,WeatherDisplay:10.37,2013-03-11 05:41:00,
2013-03-10 22:46:00,42.3,41.0,30.44,WSW,241,0.0,0.0,95,0.00,OVC,,0.01,WeatherDisplay:10.37,2013-03-11 05:46:00,
2013-03-10 22:51:00,42.3,41.2,30.44,WSW,241,0.0,0.0,96,0.00,OVC,,0.01,WeatherDisplay:10.37,2013-03-11 05:51:00,
2013-03-10 22:56:00,42.4,41.3,30.44,WSW,241,0.0,0.0,96,0.00,OVC,,0.01,WeatherDisplay:10.37,2013-03-11 05:56:00,
2013-03-10 23:06:00,42.3,41.2,30.45,WSW,240,0.0,0.0,96,0.00,OVC,,0.01,WeatherDisplay:10.37,2013-03-11 06:06:00,
2013-03-10 23:11:00,42.3,41.2,30.45,WSW,241,0.0,1.0,96,0.00,OVC,,0.01,WeatherDisplay:10.37,2013-03-11 06:11:00,
2013-03-10 23:16:00,42.3,41.2,30.45,WSW,241,0.0,0.0,96,0.00,OVC,,0.01,WeatherDisplay:10.37,2013-03-11 06:16:00,
2013-03-10 23:21:00,42.3,41.2,30.44,WSW,241,0.0,0.0,96,0.00,OVC,,0.01,WeatherDisplay:10.37,2013-03-11 06:21:00,
2013-03-10 23:26:00,42.3,41.2,30.44,WSW,240,0.0,0.0,96,0.00,OVC,,0.01,WeatherDisplay:10.37,2013-03-11 06:26:00,
2013-03-10 23:31:00,42.3,41.2,30.44,WSW,240,0.0,0.0,96,0.00,OVC,,0.01,WeatherDisplay:10.37,2013-03-11 06:31:00,
2013-03-10 23:36:00,42.3,41.2,30.44,WSW,240,0.0,0.0,96,0.00,OVC,,0.01,WeatherDisplay:10.37,2013-03-11 06:36:00,
2013-03-10 23:41:00,42.3,41.3,30.44,WSW,241,0.0,0.0,96,0.00,OVC,,0.01,WeatherDisplay:10.37,2013-03-11 06:41:00,
2013-03-10 23:46:00,42.3,41.2,30.44,WSW,241,0.0,0.0,96,0.00,OVC,,0.01,WeatherDisplay:10.37,2013-03-11 06:46:00,
2013-03-10 23:51:00,42.3,41.2,30.45,WSW,241,0.0,0.0,96,0.00,OVC,,0.01,WeatherDisplay:10.37,2013-03-11 06:51:00,
2013-03-10 23:56:00,42.2,41.1,30.45,WSW,241,0.0,0.0,96,0.00,OVC,,0.01,WeatherDisplay:10.37,2013-03-11 06:56:00,